Time,TemperatureF,DewpointF,PressureIn,WindDirection,WindDirectionDegrees,WindSpeedMPH,WindSpeedGustMPH,Humidity,HourlyPrecipIn,Conditions,Clouds,dailyrainin,SoftwareType,DateUTC
2013-02-04 00:01:00,14.0,11.0,30.03,WSW,248,0.0,2.0,87,0.01,,,0.01,,2013-02-04 06:01:00,
2013-02-04 00:11:00,14.0,11.0,30.03,WSW,248,0.0,2.0,87,0.01,,,0.01,,2013-02-04 06:11:00,
2013-02-04 00:21:00,14.0,11.0,30.03,WSW,248,0.0,0.0,87,0.01,,,0.01,,2013-02-04 06:21:00,
2013-02-04 00:32:00,14.0,11.0,30.02,WSW,248,0.0,0.0,87,0.01,,,0.01,,2013-02-04 06:32:00,
2013-02-04 00:41:00,14.0,11.0,30.02,WSW,248,0.0,0.0,87,0.01,,,0.01,,2013-02-04 06:41:00,
2013-02-04 00:52:00,14.0,11.0,30.02,WSW,248,0.0,2.0,87,0.01,,,0.01,,2013-02-04 06:52:00,
2013-02-04 01:02:00,14.0,11.0,30.01,NNW,344,1.0,3.0,86,0.00,,,0.01,,2013-02-04 07:02:00,
2013-02-04 01:11:00,14.0,11.0,30.01,NNW,344,1.0,3.0,86,0.00,,,0.01,,2013-02-04 07:11:00,
2013-02-04 01:21:00,14.0,11.0,30.00,NNW,344,0.0,2.0,86,0.01,,,0.02,,2013-02-04 07:21:00,
2013-02-04 01:31:00,14.0,11.0,30.01,NNE,13,0.0,4.0,86,0.01,,,0.02,,2013-02-04 07:31:00,
2013-02-04 01:42:00,14.0,11.0,30.01,NNE,13,0.0,4.0,86,0.01,,,0.02,,2013-02-04 07:42:00,
2013-02-04 01:51:00,14.0,11.0,30.00,NNE,13,3.0,3.0,86,0.01,,,0.02,,2013-02-04 07:51:00,
2013-02-04 02:01:00,14.0,11.0,29.99,NE,53,0.0,3.0,86,0.01,,,0.02,,2013-02-04 08:01:00,
2013-02-04 02:11:00,14.0,11.0,29.99,NE,53,0.0,3.0,86,0.01,,,0.02,,2013-02-04 08:11:00,
2013-02-04 02:21:00,14.0,11.0,29.99,NE,53,1.0,2.0,87,0.00,,,0.02,,2013-02-04 08:21:00,
2013-02-04 02:31:00,14.0,11.0,30.00,NE,53,0.0,2.0,86,0.00,,,0.02,,2013-02-04 08:31:00,
2013-02-04 02:42:00,14.0,11.0,30.00,NE,53,0.0,2.0,86,0.00,,,0.02,,2013-02-04 08:42:00,
2013-02-04 02:52:00,14.0,11.0,29.98,NE,53,0.0,3.0,86,0.01,,,0.03,,2013-02-04 08:52:00,
2013-02-04 03:02:00,13.0,10.0,29.98,NE,55,1.0,3.0,87,0.01,,,0.03,,2013-02-04 09:02:00,
2013-02-04 03:11:00,13.0,10.0,29.98,NE,55,1.0,3.0,87,0.01,,,0.03,,2013-02-04 09:11:00,
2013-02-04 03:21:00,13.0,10.0,29.97,NE,55,2.0,2.0,87,0.01,,,0.03,,2013-02-04 09:21:00,
2013-02-04 03:31:00,13.0,10.0,29.97,NE,42,2.0,6.0,86,0.00,,,0.03,,2013-02-04 09:31:00,
2013-02-04 03:41:00,13.0,10.0,29.97,NE,42,2.0,6.0,86,0.00,,,0.03,,2013-02-04 09:41:00,
2013-02-04 03:51:00,13.0,10.0,29.97,NE,51,1.0,6.0,87,0.00,,,0.03,,2013-02-04 09:51:00,
2013-02-04 04:01:00,13.0,10.0,29.97,NE,41,3.0,5.0,86,0.00,,,0.03,,2013-02-04 10:01:00,
2013-02-04 04:11:00,13.0,10.0,29.97,NE,41,3.0,5.0,86,0.00,,,0.03,,2013-02-04 10:11:00,
2013-02-04 04:21:00,12.0,9.0,29.98,ENE,61,0.0,6.0,86,0.00,,,0.03,,2013-02-04 10:21:00,
2013-02-04 04:32:00,12.0,9.0,29.98,NNE,32,1.0,4.0,87,0.00,,,0.03,,2013-02-04 10:32:00,
2013-02-04 04:41:00,12.0,9.0,29.98,NNE,32,1.0,4.0,87,0.00,,,0.03,,2013-02-04 10:41:00,
2013-02-04 04:51:00,12.0,9.0,29.97,NE,43,1.0,5.0,86,0.00,,,0.03,,2013-02-04 10:51:00,
2013-02-04 05:01:00,12.0,9.0,29.98,NNE,26,3.0,5.0,86,0.00,,,0.03,,2013-02-04 11:01:00,
2013-02-04 05:11:00,12.0,9.0,29.98,NNE,26,3.0,5.0,86,0.00,,,0.03,,2013-02-04 11:11:00,
2013-02-04 05:22:00,12.0,9.0,29.98,NNE,17,1.0,7.0,86,0.00,,,0.03,,2013-02-04 11:22:00,
2013-02-04 05:32:00,12.0,9.0,29.98,NE,48,4.0,7.0,86,0.00,,,0.03,,2013-02-04 11:32:00,
2013-02-04 05:42:00,12.0,9.0,29.98,NE,48,4.0,7.0,86,0.00,,,0.03,,2013-02-04 11:42:00,
2013-02-04 05:52:00,12.0,9.0,29.98,NNE,32,4.0,5.0,86,0.00,,,0.03,,2013-02-04 11:52:00,
2013-02-04 06:02:00,12.0,9.0,29.98,East,95,1.0,8.0,86,0.00,,,0.03,,2013-02-04 12:02:00,
2013-02-04 06:12:00,12.0,9.0,29.98,East,95,1.0,8.0,86,0.00,,,0.03,,2013-02-04 12:12:00,
2013-02-04 06:21:00,12.0,9.0,29.99,NE,37,0.0,6.0,86,0.00,,,0.03,,2013-02-04 12:21:00,
2013-02-04 06:32:00,12.0,9.0,29.98,ENE,68,1.0,5.0,86,0.00,,,0.03,,2013-02-04 12:32:00,
2013-02-04 06:42:00,12.0,9.0,29.98,ENE,68,1.0,5.0,86,0.00,,,0.03,,2013-02-04 12:42:00,
2013-02-04 06:53:00,12.0,9.0,29.99,NE,34,3.0,4.0,86,0.00,,,0.03,,2013-02-04 12:53:00,
2013-02-04 07:02:00,11.0,7.0,29.99,ENE,65,2.0,7.0,85,0.00,,,0.03,,2013-02-04 13:02:00,
2013-02-04 07:12:00,11.0,7.0,29.99,NE,49,2.0,4.0,85,0.00,,,0.03,,2013-02-04 13:12:00,
2013-02-04 07:21:00,11.0,7.0,29.99,NE,49,2.0,4.0,85,0.00,,,0.03,,2013-02-04 13:21:00,
2013-02-04 07:33:00,11.0,7.0,29.99,NNE,30,1.0,5.0,85,0.00,,,0.03,,2013-02-04 13:33:00,
2013-02-04 07:42:00,11.0,7.0,29.99,NNE,30,1.0,5.0,85,0.00,,,0.03,,2013-02-04 13:42:00,
2013-02-04 07:51:00,11.0,7.0,29.99,NE,51,3.0,6.0,85,0.00,,,0.03,,2013-02-04 13:51:00,
2013-02-04 08:03:00,11.0,7.0,29.99,North,5,5.0,5.0,85,0.00,,,0.03,,2013-02-04 14:03:00,
2013-02-04 08:11:00,11.0,7.0,29.99,North,5,5.0,5.0,85,0.00,,,0.03,,2013-02-04 14:11:00,
2013-02-04 08:22:00,11.0,7.0,29.99,ENE,72,1.0,9.0,85,0.00,,,0.03,,2013-02-04 14:22:00,
2013-02-04 08:32:00,11.0,7.0,30.00,ENE,63,2.0,8.0,85,0.00,,,0.03,,2013-02-04 14:32:00,
2013-02-04 08:42:00,11.0,7.0,30.00,ENE,63,2.0,8.0,85,0.00,,,0.03,,2013-02-04 14:42:00,
2013-02-04 08:52:00,11.0,7.0,30.00,North,5,3.0,9.0,85,0.00,,,0.03,,2013-02-04 14:52:00,
2013-02-04 09:03:00,12.0,8.0,30.00,East,92,1.0,7.0,85,0.00,,,0.03,,2013-02-04 15:03:00,
2013-02-04 09:12:00,12.0,8.0,30.00,East,92,1.0,7.0,85,0.00,,,0.03,,2013-02-04 15:12:00,
2013-02-04 09:23:00,12.0,8.0,30.00,NE,39,5.0,8.0,83,0.00,,,0.03,,2013-02-04 15:23:00,
2013-02-04 09:33:00,12.0,8.0,29.99,NNE,22,4.0,9.0,83,0.00,,,0.03,,2013-02-04 15:33:00,
2013-02-04 09:43:00,12.0,8.0,29.99,NNE,22,4.0,9.0,83,0.00,,,0.03,,2013-02-04 15:43:00,
2013-02-04 09:52:00,12.0,7.0,29.99,ENE,58,3.0,9.0,79,0.00,,,0.03,,2013-02-04 15:52:00,
2013-02-04 10:02:00,12.0,6.0,30.00,NNE,31,5.0,7.0,78,0.00,,,0.03,,2013-02-04 16:02:00,
2013-02-04 10:11:00,12.0,6.0,30.00,NNE,31,5.0,7.0,78,0.00,,,0.03,,2013-02-04 16:11:00,
2013-02-04 10:22:00,13.0,6.0,30.00,ENE,74,4.0,9.0,74,0.00,,,0.03,,2013-02-04 16:22:00,
2013-02-04 10:33:00,13.0,6.0,30.00,NE,42,3.0,8.0,73,0.00,,,0.03,,2013-02-04 16:33:00,
2013-02-04 10:42:00,13.0,6.0,30.00,NE,42,3.0,8.0,73,0.00,,,0.03,,2013-02-04 16:42:00,
2013-02-04 10:52:00,13.0,6.0,30.00,NE,43,3.0,8.0,74,0.00,,,0.03,,2013-02-04 16:52:00,
2013-02-04 11:02:00,14.0,7.0,30.01,NNW,344,2.0,6.0,74,0.00,,,0.03,,2013-02-04 17:02:00,
2013-02-04 11:11:00,14.0,7.0,30.01,NNW,344,2.0,6.0,74,0.00,,,0.03,,2013-02-04 17:11:00,
2013-02-04 11:21:00,13.0,6.0,30.01,North,5,5.0,9.0,73,0.00,,,0.03,,2013-02-04 17:21:00,
2013-02-04 11:32:00,13.0,6.0,30.01,North,360,6.0,8.0,72,0.00,,,0.03,,2013-02-04 17:32:00,
2013-02-04 11:42:00,13.0,6.0,30.01,North,360,6.0,8.0,72,0.00,,,0.03,,2013-02-04 17:42:00,
2013-02-04 11:51:00,14.0,6.0,30.01,NE,43,5.0,9.0,71,0.00,,,0.03,,2013-02-04 17:51:00,
2013-02-04 12:03:00,14.0,6.0,30.00,NNW,343,5.0,8.0,71,0.00,,,0.03,,2013-02-04 18:03:00,
2013-02-04 12:11:00,14.0,6.0,30.00,NNW,343,5.0,8.0,71,0.00,,,0.03,,2013-02-04 18:11:00,
2013-02-04 12:22:00,14.0,7.0,30.00,NW,322,6.0,9.0,72,0.00,,,0.03,,2013-02-04 18:22:00,
2013-02-04 12:32:00,14.0,7.0,30.01,NE,40,2.0,9.0,73,0.00,,,0.03,,2013-02-04 18:32:00,
2013-02-04 12:42:00,14.0,7.0,30.01,NE,40,2.0,9.0,73,0.00,,,0.03,,2013-02-04 18:42:00,
2013-02-04 12:52:00,14.0,7.0,30.01,NE,36,3.0,8.0,72,0.00,,,0.03,,2013-02-04 18:52:00,
2013-02-04 13:02:00,14.0,5.0,30.01,NNE,26,2.0,7.0,67,0.00,,,0.03,,2013-02-04 19:02:00,
2013-02-04 13:11:00,14.0,5.0,30.01,NNE,26,2.0,7.0,67,0.00,,,0.03,,2013-02-04 19:11:00,
2013-02-04 13:22:00,14.0,4.0,30.01,NW,325,4.0,7.0,65,0.00,,,0.03,,2013-02-04 19:22:00,
2013-02-04 13:31:00,14.0,4.0,30.01,NW,325,4.0,6.0,65,0.00,,,0.03,,2013-02-04 19:31:00,
2013-02-04 13:42:00,14.0,4.0,30.01,NW,325,4.0,6.0,65,0.00,,,0.03,,2013-02-04 19:42:00,
2013-02-04 13:52:00,14.0,4.0,30.00,NNW,332,4.0,8.0,65,0.00,,,0.03,,2013-02-04 19:52:00,
2013-02-04 14:02:00,15.0,5.0,29.98,ENE,76,2.0,7.0,63,0.00,,,0.03,,2013-02-04 20:02:00,
2013-02-04 14:12:00,15.0,5.0,29.98,ENE,76,2.0,7.0,63,0.00,,,0.03,,2013-02-04 20:12:00,
2013-02-04 14:22:00,15.0,5.0,29.97,ENE,59,5.0,5.0,63,0.00,,,0.03,,2013-02-04 20:22:00,
2013-02-04 14:32:00,15.0,5.0,29.97,NE,48,2.0,7.0,63,0.00,,,0.03,,2013-02-04 20:32:00,
2013-02-04 14:42:00,15.0,5.0,29.97,NE,48,2.0,7.0,63,0.00,,,0.03,,2013-02-04 20:42:00,
2013-02-04 14:52:00,15.0,5.0,29.97,ENE,70,2.0,5.0,63,0.00,,,0.03,,2013-02-04 20:52:00,
2013-02-04 15:02:00,15.0,5.0,29.97,NE,42,3.0,5.0,63,0.00,,,0.03,,2013-02-04 21:02:00,
2013-02-04 15:11:00,15.0,5.0,29.97,NE,42,3.0,5.0,63,0.00,,,0.03,,2013-02-04 21:11:00,
2013-02-04 15:22:00,15.0,4.0,29.98,NE,35,1.0,5.0,62,0.00,,,0.03,,2013-02-04 21:22:00,
2013-02-04 15:31:00,15.0,4.0,29.97,NE,44,1.0,5.0,62,0.00,,,0.03,,2013-02-04 21:31:00,
2013-02-04 15:42:00,15.0,4.0,29.97,NE,44,1.0,5.0,62,0.00,,,0.03,,2013-02-04 21:42:00,
2013-02-04 15:52:00,15.0,4.0,29.98,ESE,120,2.0,5.0,60,0.00,,,0.03,,2013-02-04 21:52:00,
2013-02-04 16:02:00,15.0,4.0,29.97,ESE,123,2.0,4.0,61,0.00,,,0.03,,2013-02-04 22:02:00,
2013-02-04 16:12:00,15.0,4.0,29.97,ESE,123,2.0,4.0,61,0.00,,,0.03,,2013-02-04 22:12:00,
2013-02-04 16:21:00,15.0,4.0,29.98,ESE,123,1.0,3.0,61,0.00,,,0.03,,2013-02-04 22:21:00,
2013-02-04 16:32:00,14.0,3.0,29.98,ESE,123,0.0,4.0,61,0.00,,,0.03,,2013-02-04 22:32:00,
2013-02-04 16:42:00,14.0,3.0,29.98,ESE,123,0.0,4.0,61,0.00,,,0.03,,2013-02-04 22:42:00,
2013-02-04 16:52:00,14.0,3.0,29.98,ESE,123,0.0,3.0,61,0.00,,,0.03,,2013-02-04 22:52:00,
2013-02-04 17:01:00,14.0,3.0,29.97,ESE,123,0.0,2.0,62,0.00,,,0.03,,2013-02-04 23:01:00,
2013-02-04 17:11:00,14.0,3.0,29.97,ESE,123,0.0,2.0,62,0.00,,,0.03,,2013-02-04 23:11:00,
2013-02-04 17:21:00,13.0,3.0,29.97,ESE,123,0.0,1.0,64,0.00,,,0.03,,2013-02-04 23:21:00,
2013-02-04 17:32:00,12.0,3.0,29.97,ESE,123,0.0,0.0,65,0.00,,,0.03,,2013-02-04 23:32:00,
2013-02-04 17:42:00,12.0,3.0,29.97,ESE,123,0.0,0.0,65,0.00,,,0.03,,2013-02-04 23:42:00,
2013-02-04 17:52:00,11.0,3.0,29.98,ESE,123,0.0,0.0,70,0.00,,,0.03,,2013-02-04 23:52:00,
2013-02-04 18:01:00,10.0,2.0,29.98,ESE,123,0.0,0.0,69,0.00,,,0.03,,2013-02-05 00:01:00,
2013-02-04 18:11:00,10.0,2.0,29.98,ESE,123,0.0,0.0,69,0.00,,,0.03,,2013-02-05 00:11:00,
2013-02-04 18:21:00,9.0,2.0,29.98,ESE,123,0.0,0.0,73,0.00,,,0.03,,2013-02-05 00:21:00,
2013-02-04 18:31:00,8.0,1.0,29.97,ESE,123,0.0,0.0,74,0.00,,,0.03,,2013-02-05 00:31:00,
2013-02-04 18:42:00,8.0,1.0,29.97,ESE,123,0.0,0.0,74,0.00,,,0.03,,2013-02-05 00:42:00,
2013-02-04 18:51:00,7.0,1.0,29.98,ESE,123,0.0,1.0,76,0.00,,,0.03,,2013-02-05 00:51:00,
2013-02-04 19:01:00,8.0,2.0,29.98,ESE,123,0.0,0.0,77,0.00,,,0.03,,2013-02-05 01:01:00,
2013-02-04 19:11:00,8.0,2.0,29.98,ESE,123,0.0,0.0,77,0.00,,,0.03,,2013-02-05 01:11:00,
2013-02-04 19:22:00,8.0,2.0,29.98,ESE,123,0.0,0.0,76,0.00,,,0.03,,2013-02-05 01:22:00,
2013-02-04 19:32:00,8.0,2.0,30.00,ESE,123,1.0,0.0,77,0.00,,,0.03,,2013-02-05 01:32:00,
2013-02-04 19:42:00,8.0,2.0,30.00,ESE,123,1.0,0.0,77,0.00,,,0.03,,2013-02-05 01:42:00,
2013-02-04 19:52:00,9.0,4.0,30.01,ESE,123,0.0,0.0,78,0.00,,,0.03,,2013-02-05 01:52:00,
2013-02-04 20:01:00,9.0,3.0,30.01,ESE,123,0.0,0.0,77,0.00,,,0.03,,2013-02-05 02:01:00,
2013-02-04 20:11:00,9.0,3.0,30.01,ESE,123,0.0,0.0,77,0.00,,,0.03,,2013-02-05 02:11:00,
2013-02-04 20:22:00,9.0,4.0,30.00,ESE,123,0.0,1.0,78,0.00,,,0.03,,2013-02-05 02:22:00,
2013-02-04 20:32:00,9.0,4.0,29.99,ESE,123,0.0,0.0,79,0.00,,,0.03,,2013-02-05 02:32:00,
2013-02-04 20:41:00,9.0,4.0,29.99,ESE,123,0.0,0.0,79,0.00,,,0.03,,2013-02-05 02:41:00,
2013-02-04 20:52:00,9.0,4.0,29.98,ESE,123,0.0,0.0,79,0.00,,,0.03,,2013-02-05 02:52:00,
2013-02-04 21:02:00,9.0,4.0,29.99,ESE,123,0.0,0.0,78,0.00,,,0.03,,2013-02-05 03:02:00,
2013-02-04 21:11:00,9.0,4.0,29.99,ESE,123,0.0,0.0,78,0.00,,,0.03,,2013-02-05 03:11:00,
2013-02-04 21:21:00,9.0,4.0,29.98,ESE,123,0.0,0.0,78,0.00,,,0.03,,2013-02-05 03:21:00,
2013-02-04 21:32:00,9.0,4.0,29.97,ESE,123,0.0,0.0,78,0.00,,,0.03,,2013-02-05 03:32:00,
2013-02-04 21:42:00,9.0,4.0,29.97,ESE,123,0.0,0.0,78,0.00,,,0.03,,2013-02-05 03:42:00,
2013-02-04 21:52:00,9.0,4.0,29.98,ESE,123,0.0,0.0,78,0.00,,,0.03,,2013-02-05 03:52:00,
2013-02-04 22:01:00,10.0,5.0,29.97,ESE,123,0.0,0.0,79,0.00,,,0.03,,2013-02-05 04:01:00,
2013-02-04 22:11:00,10.0,5.0,29.97,ESE,123,0.0,0.0,79,0.00,,,0.03,,2013-02-05 04:11:00,
2013-02-04 22:21:00,10.0,5.0,29.98,ESE,123,0.0,0.0,79,0.00,,,0.03,,2013-02-05 04:21:00,
2013-02-04 22:32:00,10.0,5.0,29.97,ESE,123,0.0,0.0,78,0.00,,,0.03,,2013-02-05 04:32:00,
2013-02-04 22:42:00,10.0,5.0,29.97,ESE,123,0.0,0.0,78,0.00,,,0.03,,2013-02-05 04:42:00,
2013-02-04 22:52:00,10.0,5.0,29.96,ESE,123,0.0,0.0,78,0.00,,,0.03,,2013-02-05 04:52:00,
2013-02-04 23:02:00,10.0,4.0,29.95,SE,125,1.0,3.0,77,0.00,,,0.03,,2013-02-05 05:02:00,
2013-02-04 23:11:00,10.0,4.0,29.95,SE,125,1.0,3.0,77,0.00,,,0.03,,2013-02-05 05:11:00,
2013-02-04 23:21:00,10.0,4.0,29.95,SE,125,0.0,2.0,77,0.00,,,0.03,,2013-02-05 05:21:00,
2013-02-04 23:32:00,10.0,4.0,29.95,SE,125,1.0,1.0,77,0.00,,,0.03,,2013-02-05 05:32:00,
2013-02-04 23:42:00,10.0,4.0,29.95,SE,125,1.0,1.0,77,0.00,,,0.03,,2013-02-05 05:42:00,
2013-02-04 23:52:00,10.0,4.0,29.95,SE,126,0.0,2.0,77,0.00,,,0.03,,2013-02-05 05:52:00,